Wind_Speed
6 6 6 5 5 5 3 3 3 3 2 1 1 1 1 0 1 1 2 2 2 3 3 3 4 4 4 4 3 3 3 3 2 2 2 3 3 3 3 2 3 3 3
6 6 6 5 6 5 4 3 3 3 2 1 0 0 0 1 1 1 2 2 2 3 3 3 4 3 3 3 3 3 4 3 3 2 2 2 2 3 3 3 3 3 3
6 6 5 5 5 5 4 3 3 2 2 2 1 0 1 1 1 2 2 2 2 3 3 3 3 3 3 3 3 3 4 3 3 3 3 3 3 3 3 3 3 3 4
6 6 5 5 5 4 3 2 2 2 1 1 1 1 1 1 1 2 2 2 3 2 2 2 3 3 3 3 3 3 4 3 3 4 4 4 4 4 4 4 4 3 4
6 6 6 5 5 4 3 2 2 2 2 2 1 1 1 1 2 2 2 2 2 2 2 2 3 3 4 4 4 4 4 4 4 4 4 5 5 5 5 4 4 4 4
7 6 6 6 5 4 3 2 2 2 2 2 1 1 2 1 1 2 3 3 3 3 3 3 3 3 3 3 4 4 5 5 5 5 5 6 6 5 5 5 5 4 4
7 7 6 5 4 3 3 2 1 1 2 2 2 1 2 2 1 2 3 3 3 3 3 4 4 3 3 3 4 4 5 6 6 6 6 6 6 6 6 6 5 5 4
7 7 6 5 4 4 3 3 2 2 2 3 3 3 3 3 2 2 2 2 2 2 3 4 4 4 4 4 5 4 5 5 5 6 7 7 7 7 7 7 7 6 6
7 6 5 5 5 5 4 4 3 3 3 3 3 3 3 3 4 3 3 3 3 3 3 3 4 5 5 5 5 5 5 5 6 6 7 8 8 8 7 7 8 8 7
7 6 6 5 5 5 5 4 4 4 4 4 4 4 4 4 4 5 5 4 3 3 4 4 5 6 6 6 6 6 7 7 7 7 8 8 8 8 8 8 8 8 9
7 7 6 6 6 6 5 5 4 4 5 5 5 6 5 6 6 4 4 5 5 4 4 5 5 6 7 7 8 8 8 8 8 8 8 8 8 8 9 9 9 9 9
8 7 6 6 7 7 6 5 5 6 5 5 5 5 6 6 6 6 5 5 6 6 5 5 6 6 8 8 8 8 8 8 9 8 8 8 8 9 9 10 10 10 10
8 8 7 6 7 7 7 6 7 7 6 6 6 6 7 6 6 7 7 7 7 7 7 6 7 8 8 8 8 8 8 9 10 10 10 9 9 10 10 11 11 11 12
10 9 8 8 8 8 7 7 7 9 8 7 7 7 7 7 7 8 8 8 8 8 8 8 7 8 9 8 9 9 10 10 11 11 11 10 10 11 11 11 12 13 13
11 11 10 10 9 9 9 8 8 9 9 9 8 8 8 8 8 8 8 8 8 8 8 8 8 8 8 9 9 10 10 10 11 11 11 10 11 12 12 13 13 12 12
12 11 10 11 11 10 10 10 9 9 10 10 10 9 9 8 8 9 9 9 9 9 9 8 8 9 9 10 9 9 9 10 11 11 12 12 12 13 14 14 13 13 13
12 12 12 12 11 10 10 10 10 10 10 10 9 9 9 9 9 10 10 10 10 10 10 9 9 10 10 10 9 9 9 10 10 11 12 13 13 13 13 14 13 14 13
13 13 14 13 12 11 10 10 11 11 11 11 10 10 10 10 10 10 11 11 11 11 10 10 10 10 10 10 10 10 10 10 11 12 13 13 14 13 13 13 14 14 14
14 14 15 14 13 12 12 12 12 12 12 12 11 10 10 10 10 11 11 11 11 12 11 11 11 11 11 11 11 11 11 11 12 12 13 14 13 13 13 14 14 14 15
15 15 15 15 14 14 13 13 13 13 13 12 12 12 11 11 11 11 11 11 11 11 11 11 12 11 11 11 12 12 12 12 13 12 13 14 14 13 14 14 15 15 16
16 16 15 15 15 15 14 13 13 13 13 13 13 12 12 12 12 12 12 12 12 12 11 11 12 12 12 12 13 13 13 12 12 12 13 13 14 14 14 14 15 16 16
18 17 17 16 16 15 15 14 14 14 14 13 13 13 14 14 13 13 13 13 13 12 12 12 12 12 13 12 12 13 13 13 13 14 14 15 14 14 14 15 15 15 16
19 18 18 17 17 17 16 15 15 14 14 13 14 14 15 15 14 14 14 14 14 14 14 13 13 13 14 14 14 14 14 15 15 15 17 16 16 15 16 16 16 16 16
19 19 18 19 19 18 18 17 16 16 15 15 15 15 15 15 16 15 15 15 15 15 15 14 14 15 15 15 15 15 16 16 17 17 17 17 17 18 18 17 17 18 17
20 20 20 20 20 19 19 18 18 17 16 16 17 17 16 16 16 16 16 16 16 16 16 16 17 17 17 17 16 17 18 18 19 19 20 19 20 20 20 19 19 19 18
21 21 20 20 19 19 19 17 17 18 17 17 17 17 16 16 16 16 16 16 17 17 17 16 17 18 18 18 18 18 19 20 20 20 20 21 21 22 21 21 20 20 20
Wind_Direction
17 12 9 1 353 344 333 328 332 338 327 318 331 313 320 198 183 188 178 172 164 169 168 172 176 177 177 181 181 178 169 163 181 183 182 179 176 177 177 177 183 163 165
12 10 3 355 350 340 330 326 331 331 318 300 325 332 75 177 179 173 170 171 181 181 179 173 177 179 175 183 170 170 181 179 197 204 199 196 191 190 195 195 185 183 179
5 3 359 351 347 340 336 338 325 327 305 297 320 280 154 163 184 174 169 178 188 196 201 189 183 184 175 172 174 177 183 182 198 208 209 205 204 198 199 205 206 203 196
357 355 353 346 342 339 336 335 324 331 336 313 316 222 155 161 192 193 185 186 195 206 205 194 184 194 190 181 182 188 186 194 201 208 213 215 214 211 209 211 213 217 203
350 350 347 340 334 337 334 333 327 337 350 345 348 235 199 188 206 203 197 201 206 209 204 208 226 202 198 197 196 199 200 203 209 210 212 219 216 214 216 221 226 228 218
342 339 335 330 334 337 333 341 333 325 333 342 336 246 231 224 201 209 200 207 212 219 220 219 227 206 205 205 206 213 212 211 217 210 213 219 218 218 224 226 224 228 226
339 335 330 329 338 332 324 333 339 317 301 304 304 275 250 247 221 232 215 222 218 224 224 212 218 222 221 219 221 223 219 223 223 222 224 227 228 224 227 231 228 229 227
334 331 329 331 330 322 314 305 297 294 298 288 289 277 269 253 251 260 245 240 240 236 219 214 223 227 225 226 226 227 227 228 230 230 229 231 232 229 228 229 232 236 239
326 326 330 331 325 321 313 306 294 292 293 287 289 273 266 259 254 251 247 237 240 246 230 224 228 230 227 230 232 233 237 239 236 232 232 233 237 237 237 232 233 237 241
315 319 319 320 323 319 314 305 296 291 298 290 282 275 263 264 261 257 248 245 251 253 243 233 233 232 237 240 235 238 244 242 243 241 240 239 242 244 248 245 240 241 245
306 312 311 310 315 312 305 299 290 294 300 291 277 271 270 271 269 258 248 252 264 267 252 247 247 244 246 245 243 245 242 246 249 246 244 240 245 249 252 246 245 249 248
295 302 303 303 305 301 293 286 284 292 296 291 287 282 276 275 272 267 258 261 265 262 258 255 249 249 247 247 251 251 245 243 248 245 243 244 247 251 250 246 252 254 250
288 290 291 291 295 292 285 283 283 287 290 286 285 275 274 274 270 268 268 269 270 260 257 259 254 257 255 252 252 249 246 245 245 245 245 246 250 254 253 251 256 256 254
284 282 280 283 285 285 279 279 282 279 283 283 278 270 272 271 270 273 272 266 270 266 260 259 259 259 258 256 256 252 249 250 253 248 248 252 255 255 253 254 251 250 249
281 279 277 279 281 280 277 277 285 283 277 276 277 277 274 272 272 273 275 274 273 271 261 259 262 263 265 263 260 253 249 253 254 251 253 256 259 258 255 258 251 251 256
278 277 275 277 279 278 277 277 281 286 278 276 274 273 274 270 269 270 273 274 270 268 266 267 268 270 268 268 263 255 252 257 256 256 256 258 261 259 257 255 258 258 260
274 274 274 277 281 280 280 278 279 281 279 279 278 271 269 267 271 272 274 273 268 269 268 267 270 269 268 268 263 259 257 261 262 259 257 260 263 261 260 260 261 260 262
272 272 273 275 278 281 283 283 280 280 279 274 271 269 268 269 273 277 281 279 273 268 265 263 267 269 269 269 268 262 259 263 264 258 258 262 263 262 261 261 261 260 258
270 272 273 273 273 278 282 280 280 279 276 272 270 269 269 268 269 273 278 278 275 271 266 261 265 269 272 271 270 269 265 263 264 261 261 264 267 267 265 263 262 262 262
268 270 270 272 274 278 280 278 279 277 275 274 270 267 266 266 269 273 274 275 276 272 269 265 265 269 272 274 274 272 271 265 263 263 264 267 270 269 268 266 265 266 266
267 269 269 270 271 275 279 279 282 278 274 271 266 265 266 267 268 271 270 270 270 269 268 268 268 271 270 273 274 270 271 270 267 269 268 270 272 270 270 268 266 265 264
265 265 266 267 269 272 274 276 276 276 274 269 265 263 264 266 267 267 268 267 266 266 267 266 267 267 269 271 271 271 270 272 274 275 271 271 272 270 271 270 270 268 265
263 263 263 266 267 269 271 272 274 274 271 267 260 258 262 265 265 268 269 268 265 264 265 264 267 269 269 269 270 272 269 269 272 275 275 273 272 271 271 272 272 269 267
259 260 263 265 267 267 267 269 271 272 268 263 259 259 263 262 263 266 269 270 267 266 265 265 268 270 271 271 271 272 273 272 272 274 275 274 271 271 272 272 271 268 266
259 260 262 263 264 264 266 269 268 269 265 262 259 260 262 262 262 263 267 270 267 267 267 267 268 270 272 273 273 274 275 275 274 275 274 273 272 273 275 274 274 269 264
259 260 261 260 263 264 267 269 268 267 264 262 261 261 262 262 262 263 266 269 267 268 268 270 271 271 272 274 274 274 275 275 275 275 275 274 273 274 273 274 274 269 265
Height
5887 5886 5885 5884 5884 5883 5882 5881 5881 5880 5880 5879 5878 5878 5877 5877 5877 5877 5877 5877 5877 5877 5877 5877 5878 5878 5879 5879 5880 5880 5880 5881 5881 5882 5882 5882 5882 5882 5883 5882 5883 5883 5883
5887 5886 5885 5884 5883 5882 5881 5881 5880 5879 5879 5878 5877 5877 5877 5876 5876 5876 5876 5877 5877 5877 5877 5877 5877 5877 5878 5879 5879 5879 5880 5880 5881 5881 5881 5881 5882 5882 5882 5882 5883 5882 5882
5886 5885 5884 5883 5882 5882 5881 5880 5879 5879 5878 5877 5877 5876 5876 5876 5876 5876 5876 5876 5876 5876 5876 5876 5877 5877 5878 5878 5879 5879 5879 5880 5881 5881 5881 5881 5881 5881 5882 5882 5882 5882 5882
5886 5885 5884 5883 5882 5881 5880 5879 5879 5878 5877 5877 5876 5875 5875 5875 5875 5875 5875 5876 5876 5875 5876 5876 5876 5877 5877 5878 5878 5879 5879 5879 5880 5880 5880 5880 5881 5881 5881 5882 5882 5882 5882
5885 5884 5883 5882 5881 5881 5880 5879 5878 5877 5877 5876 5876 5875 5875 5875 5874 5875 5875 5875 5875 5875 5875 5875 5876 5876 5877 5877 5878 5878 5878 5879 5879 5879 5880 5880 5880 5880 5881 5881 5881 5881 5881
5884 5883 5882 5882 5881 5880 5879 5879 5878 5877 5876 5876 5875 5875 5874 5874 5874 5874 5874 5874 5874 5874 5875 5875 5875 5876 5876 5877 5877 5878 5878 5878 5878 5879 5879 5879 5879 5880 5880 5881 5881 5881 5881
5884 5883 5882 5881 5880 5880 5879 5878 5877 5876 5876 5875 5875 5874 5874 5873 5873 5873 5873 5873 5874 5874 5874 5874 5874 5875 5875 5876 5876 5877 5877 5877 5878 5878 5878 5879 5879 5879 5880 5880 5881 5881 5881
5883 5882 5881 5880 5879 5879 5878 5877 5877 5876 5875 5874 5874 5873 5872 5872 5872 5872 5872 5872 5873 5873 5873 5873 5874 5874 5874 5875 5875 5876 5876 5876 5877 5877 5877 5878 5878 5878 5879 5879 5880 5880 5880
5882 5881 5880 5879 5878 5877 5877 5876 5876 5875 5874 5874 5873 5872 5872 5871 5871 5871 5871 5871 5872 5872 5872 5872 5873 5873 5873 5873 5874 5874 5875 5875 5875 5876 5876 5877 5877 5878 5878 5878 5879 5879 5879
5881 5880 5879 5878 5877 5876 5876 5875 5874 5873 5873 5872 5872 5871 5871 5871 5870 5870 5870 5870 5871 5871 5871 5871 5871 5872 5872 5872 5873 5873 5873 5874 5874 5874 5875 5875 5876 5876 5877 5877 5877 5877 5878
5879 5879 5878 5877 5876 5875 5874 5874 5873 5872 5871 5871 5871 5870 5870 5870 5869 5869 5869 5869 5869 5869 5869 5870 5870 5870 5870 5871 5871 5871 5871 5872 5872 5873 5873 5874 5874 5875 5875 5875 5876 5876 5876
5878 5877 5876 5875 5875 5874 5873 5872 5872 5871 5870 5870 5869 5869 5869 5868 5868 5868 5868 5868 5868 5868 5868 5868 5868 5868 5869 5869 5869 5869 5869 5870 5870 5871 5872 5873 5873 5873 5874 5874 5874 5874 5874
5876 5875 5874 5874 5873 5872 5872 5871 5870 5869 5868 5868 5868 5868 5867 5867 5866 5866 5866 5865 5865 5866 5866 5866 5866 5867 5867 5867 5867 5867 5867 5868 5868 5869 5870 5870 5871 5871 5872 5872 5872 5872 5872
5873 5873 5872 5872 5871 5870 5870 5869 5869 5868 5867 5867 5866 5866 5866 5865 5865 5865 5865 5864 5864 5864 5864 5864 5865 5865 5865 5864 5864 5864 5865 5866 5866 5866 5867 5868 5868 5869 5869 5869 5870 5870 5870
5871 5870 5870 5870 5869 5869 5868 5867 5867 5866 5866 5865 5864 5865 5864 5864 5863 5863 5863 5863 5862 5862 5862 5862 5863 5863 5863 5863 5862 5862 5863 5863 5864 5864 5865 5865 5866 5866 5866 5867 5867 5867 5868
5869 5868 5868 5867 5866 5866 5866 5865 5865 5864 5864 5864 5863 5863 5863 5862 5862 5862 5861 5861 5861 5861 5861 5861 5861 5861 5861 5861 5860 5860 5860 5861 5861 5862 5862 5863 5863 5863 5864 5864 5865 5865 5865
5866 5866 5865 5865 5864 5864 5864 5863 5863 5862 5862 5862 5861 5861 5861 5861 5860 5860 5859 5859 5859 5859 5859 5859 5859 5859 5859 5859 5859 5858 5859 5859 5859 5859 5859 5860 5860 5860 5861 5861 5862 5862 5862
5863 5863 5863 5862 5861 5862 5861 5861 5860 5860 5859 5859 5859 5859 5859 5859 5858 5858 5858 5858 5857 5857 5857 5857 5857 5857 5857 5857 5857 5856 5856 5856 5856 5856 5857 5857 5857 5857 5858 5858 5859 5859 5859
5860 5860 5860 5859 5859 5859 5858 5858 5858 5857 5857 5856 5856 5857 5857 5856 5856 5856 5856 5856 5855 5855 5854 5855 5855 5855 5855 5855 5854 5854 5854 5854 5854 5854 5854 5854 5854 5854 5855 5855 5855 5856 5856
5857 5857 5857 5856 5856 5856 5855 5855 5855 5854 5854 5854 5854 5854 5854 5854 5854 5854 5854 5854 5853 5853 5852 5852 5852 5852 5852 5852 5852 5852 5852 5851 5851 5851 5851 5851 5851 5851 5851 5851 5851 5852 5852
5853 5853 5853 5854 5853 5853 5853 5852 5851 5851 5851 5851 5851 5851 5851 5851 5851 5851 5851 5851 5851 5850 5850 5850 5850 5850 5850 5849 5849 5849 5849 5848 5848 5848 5848 5848 5848 5848 5847 5848 5848 5848 5848
5849 5850 5850 5850 5850 5850 5850 5849 5849 5848 5848 5848 5848 5848 5848 5848 5848 5848 5848 5848 5848 5847 5847 5847 5847 5847 5846 5846 5846 5846 5846 5846 5845 5844 5844 5844 5844 5844 5844 5844 5844 5844 5844
5845 5846 5846 5846 5846 5846 5846 5846 5845 5845 5845 5844 5844 5845 5845 5844 5844 5844 5844 5844 5844 5844 5844 5844 5843 5843 5843 5843 5842 5842 5842 5842 5841 5841 5840 5840 5840 5840 5839 5839 5839 5839 5840
5841 5841 5842 5842 5842 5842 5842 5842 5842 5841 5841 5840 5841 5841 5841 5841 5841 5841 5841 5841 5840 5840 5840 5840 5840 5839 5839 5839 5839 5838 5838 5838 5838 5837 5837 5836 5836 5835 5835 5835 5835 5835 5835
5836 5837 5837 5837 5838 5838 5838 5837 5837 5837 5837 5836 5836 5837 5837 5837 5837 5837 5837 5836 5836 5836 5836 5836 5836 5835 5835 5835 5834 5834 5833 5833 5833 5833 5833 5832 5831 5831 5830 5830 5830 5830 5830
5831 5832 5832 5833 5833 5833 5833 5833 5833 5832 5832 5832 5832 5832 5832 5832 5832 5832 5832 5832 5832 5832 5832 5831 5831 5831 5830 5830 5830 5829 5829 5828 5828 5827 5827 5827 5826 5826 5825 5825 5825 5825 5825